Satellite: RS-38
Catalog number: 35869
Epoch time: 10189.70752958
Element set: 461
Inclination: 098.7557 deg
RA of node: 243.3863 deg
Eccentricity: 0.0004284
Arg of perigee: 313.1723 deg
Mean anomaly: 046.9049 deg
Mean motion: 14.21984690 rev/day
Decay rate: 1.77e-06 rev/day^2
Epoch rev: 4178
Checksum: 344
/EX
More information about the Keps
mailing list